Theta_e
351 349 351 350 351 348 342 338 317 323 321 315 317 319 321 329 330 330 330 332 329 335 338 336 335 333 331 327 330 333 332 326 330 319 319 336 349 351 353 355 356 356 356 357 360 362 363 363 364 364 364 365 365 365 365 365 364 364 364 364 364 364 364 364 364 364 364 364 364 363 363 363 363 362 362 362 362 361 361 361 362 362 362 362 361 360 361 361 361 360 361 362 361 360 360 359 360
350 351 351 350 346 342 330 337 320 319 320 316 318 322 323 332 331 327 327 331 333 336 338 335 337 338 337 336 336 334 332 335 337 334 336 344 350 351 354 356 356 355 355 357 359 361 362 364 364 364 365 365 365 365 364 364 364 364 364 365 364 364 364 365 365 364 364 364 364 364 364 363 363 362 362 361 361 361 360 361 361 362 362 363 362 362 363 362 362 360 361 360 361 360 359 360 360
350 350 348 349 343 340 337 333 316 318 314 312 317 321 331 327 327 330 333 335 339 340 337 338 339 338 336 335 331 332 326 339 337 339 339 347 343 346 354 357 357 357 357 358 359 359 363 364 364 365 365 364 365 365 365 365 365 365 365 364 364 364 363 363 363 363 364 363 363 364 364 363 363 362 361 361 361 361 361 360 361 361 361 362 362 361 361 362 362 361 361 361 360 360 360 359 359
351 350 344 343 331 337 327 324 321 318 313 316 316 323 326 327 328 333 336 339 339 339 337 334 334 340 337 330 333 337 334 334 339 338 336 342 345 350 354 356 359 358 358 358 359 360 362 364 365 365 365 364 364 365 365 365 365 365 364 364 364 363 364 361 362 364 362 363 363 363 363 362 362 362 362 362 361 361 361 361 361 361 360 362 361 361 362 362 361 362 361 360 360 360 360 359 360
349 348 348 341 335 325 327 326 322 322 314 318 316 325 327 330 332 335 336 339 339 338 336 336 334 340 342 337 337 331 333 339 339 341 340 345 351 353 355 357 358 357 357 359 360 361 362 365 365 364 364 364 364 365 365 365 364 363 363 364 364 363 363 364 362 362 363 363 363 362 363 363 363 362 361 361 361 362 361 361 361 362 361 361 362 361 361 361 360 360 360 360 360 360 360 360 360
347 346 348 344 330 341 331 321 320 319 323 325 321 325 329 334 333 335 335 338 339 339 338 336 333 334 334 336 339 334 340 332 339 341 342 345 351 354 356 358 357 357 358 360 361 362 361 365 365 364 363 363 364 365 364 364 364 363 363 363 363 364 363 363 362 361 362 362 362 362 363 363 362 362 362 361 362 362 362 362 362 361 361 361 360 360 361 360 362 361 361 361 360 359 359 360 360
341 340 338 339 336 338 322 319 318 320 324 328 325 328 331 335 335 335 334 334 339 339 341 336 338 336 331 336 340 342 345 343 340 340 346 348 352 354 356 356 356 356 358 360 362 362 359 365 365 364 364 364 365 364 364 364 364 362 362 362 363 363 364 362 361 362 362 363 362 363 363 362 362 362 362 362 361 361 361 361 360 361 360 360 360 360 359 360 362 361 361 361 361 360 360 359 359
349 338 334 328 326 329 321 320 320 323 324 329 331 330 334 335 336 335 333 332 331 332 336 338 338 336 332 340 332 342 346 345 344 347 349 351 352 354 355 356 355 355 358 361 362 362 365 365 365 364 363 363 364 364 365 364 363 363 363 362 364 364 364 362 362 362 363 363 363 362 362 363 362 362 362 362 361 360 361 360 360 359 359 359 359 359 360 360 362 362 362 361 359 359 359 360 358
343 340 342 331 323 326 321 320 321 327 327 330 331 336 339 338 338 335 333 335 335 336 336 336 337 331 332 334 334 341 344 346 348 350 349 351 351 353 355 355 354 355 358 359 361 362 362 365 365 364 363 363 364 364 364 362 363 363 364 364 363 363 362 363 363 362 362 362 363 362 362 362 362 362 362 362 361 360 361 359 358 358 358 359 359 359 358 358 359 362 362 361 359 358 359 358 358
339 339 329 328 326 318 319 319 319 323 326 331 332 336 338 338 336 337 333 332 334 335 336 339 337 333 335 330 333 338 341 348 348 348 350 351 352 354 355 356 357 356 357 358 360 360 362 366 364 364 364 363 364 364 364 363 363 363 364 364 364 365 364 363 363 363 363 363 362 362 362 362 362 362 362 362 361 361 360 358 357 358 359 359 358 356 355 356 358 359 362 360 358 359 359 358 358
332 338 339 325 321 317 316 318 321 326 328 335 336 340 338 338 337 334 335 333 337 334 336 338 334 333 334 333 336 346 348 347 345 343 349 351 353 353 354 357 357 357 357 358 359 361 362 363 366 364 364 364 364 364 362 364 362 363 363 363 365 364 364 363 363 363 363 363 363 362 362 362 363 363 362 363 362 361 361 360 358 360 358 358 356 354 354 354 358 360 362 360 359 359 357 357 358
330 331 333 321 319 318 320 319 322 325 327 331 333 337 339 337 339 333 334 331 334 334 334 337 332 338 332 332 333 342 346 345 345 346 350 352 351 353 354 356 357 358 358 358 360 360 361 364 365 365 365 365 364 364 362 364 364 363 365 365 364 365 364 363 364 363 364 362 362 362 362 362 363 363 362 363 362 362 362 362 362 360 358 357 355 354 355 353 358 357 362 359 358 357 357 356 356
334 335 329 322 319 321 322 321 323 325 324 327 331 338 340 336 335 336 335 335 335 333 333 338 339 338 328 331 339 342 341 344 347 348 350 350 351 354 355 356 356 357 358 360 359 360 362 364 363 364 364 366 365 364 363 362 364 363 363 365 364 364 363 363 363 363 363 362 362 362 362 362 362 362 362 363 363 363 363 363 362 360 356 356 353 355 353 354 357 356 360 360 358 356 355 354 354
336 335 332 321 326 322 322 323 324 322 321 327 335 340 338 335 336 339 337 334 333 332 338 341 339 338 332 334 334 336 339 346 347 348 349 350 351 353 353 355 356 356 358 360 359 361 361 364 364 361 365 365 365 364 364 364 364 364 365 365 364 364 363 363 363 362 362 362 362 361 362 362 362 362 362 362 362 362 362 362 359 359 357 356 355 355 356 354 355 359 359 361 358 357 355 354 355
336 340 331 325 322 322 324 321 321 321 320 329 335 337 336 337 339 337 336 334 333 340 341 344 341 334 328 330 329 335 340 345 347 348 348 350 351 352 353 354 355 357 357 358 359 360 360 362 363 364 365 363 363 365 363 366 364 365 365 365 364 363 363 363 362 363 362 361 361 362 361 362 362 363 362 362 361 361 361 359 360 360 359 357 357 355 356 355 357 358 358 360 357 354 354 355 354
342 338 331 322 319 319 322 323 324 322 321 330 336 338 337 338 340 335 337 339 337 341 341 334 342 333 336 335 336 340 343 346 348 347 347 348 350 351 353 353 354 356 356 358 359 360 361 361 363 363 363 364 363 363 364 364 365 366 365 364 363 363 363 363 363 362 362 362 362 362 362 363 362 362 362 362 361 361 361 362 361 361 361 360 358 360 360 359 358 358 355 358 355 354 354 352 351
345 340 325 322 318 321 322 323 323 317 325 333 337 336 331 332 339 339 342 342 336 335 338 339 336 341 337 339 342 344 345 347 347 346 346 346 348 347 350 351 352 354 355 356 359 359 360 362 362 362 363 363 361 363 364 367 365 366 365 364 363 363 363 363 363 362 362 362 363 364 363 364 364 364 364 363 361 363 360 361 361 361 361 361 361 360 360 359 360 357 355 355 356 355 354 352 351
340 328 323 320 323 321 326 323 324 325 326 332 334 335 333 330 335 337 341 338 337 337 337 339 342 341 343 344 345 346 346 345 345 343 342 343 345 344 345 349 350 350 353 353 358 360 359 362 362 363 363 363 364 364 364 366 366 366 367 367 365 364 363 363 364 364 361 364 363 364 367 365 364 365 364 363 363 363 363 361 361 361 361 361 360 361 360 359 358 356 355 355 354 355 354 353 352
332 327 325 321 325 327 330 329 330 328 325 333 335 336 334 332 335 337 334 333 334 333 335 337 337 340 343 344 344 344 344 343 342 342 341 341 342 342 343 346 348 349 351 354 354 358 360 361 362 362 363 363 365 364 363 364 366 367 366 366 365 363 364 365 364 365 364 365 365 364 364 363 363 365 366 363 362 362 362 360 361 361 360 360 361 361 361 360 359 356 355 355 357 358 359 356 357
335 329 322 324 330 331 331 332 331 332 330 332 333 334 334 335 336 339 333 332 334 332 332 334 334 334 337 340 342 342 343 341 342 342 341 341 342 342 343 344 346 349 350 353 354 358 359 360 361 363 363 364 362 361 362 363 365 366 364 365 365 364 365 365 365 365 365 365 364 363 361 363 362 364 364 362 361 364 364 362 361 360 360 361 362 362 360 362 362 359 358 357 358 358 363 361 362
334 330 325 328 332 330 332 333 333 334 332 332 333 334 332 335 336 336 334 331 332 334 337 335 334 335 337 339 341 341 341 340 340 341 341 342 343 343 344 345 346 349 352 354 355 356 358 360 360 362 364 363 362 360 361 361 364 363 363 363 364 363 364 363 364 365 365 365 364 362 360 361 362 362 364 364 363 363 362 364 364 363 363 364 362 364 364 364 364 365 366 365 366 365 362 362 363
334 329 332 333 333 327 333 334 332 333 331 332 333 330 331 337 336 334 335 330 330 335 338 339 339 339 338 338 339 341 340 339 339 340 341 341 342 342 344 347 349 350 353 351 353 356 358 360 361 362 362 363 362 361 360 362 364 362 362 363 363 364 364 363 363 363 363 365 362 360 361 362 362 362 363 363 363 363 360 361 365 365 362 364 365 365 365 366 365 364 365 363 364 365 365 365 364
324 331 333 335 335 332 336 335 336 335 331 329 329 333 335 333 332 335 335 333 336 341 342 341 341 341 341 341 340 339 339 338 339 340 341 341 342 344 344 345 346 347 350 351 354 355 357 360 361 362 361 362 360 362 361 362 361 362 364 363 362 362 364 362 361 362 363 365 363 363 360 360 360 360 361 362 362 364 362 361 362 363 365 365 367 364 365 366 365 364 364 363 364 363 363 365 366
330 326 331 332 334 333 336 335 336 334 331 329 332 335 331 332 328 335 333 337 338 342 343 342 343 343 342 340 340 339 339 339 339 341 342 342 343 344 345 345 347 349 350 350 352 354 357 357 362 362 361 361 361 360 361 359 362 360 362 364 363 363 362 362 361 361 365 364 365 363 363 362 360 359 361 361 362 364 363 364 364 361 362 363 367 366 364 365 366 367 366 365 364 365 361 362 362
327 326 330 331 332 333 333 333 331 330 330 332 331 329 329 333 331 334 333 336 339 342 343 342 342 342 341 340 340 340 340 340 341 342 343 344 344 345 347 347 348 349 347 349 351 353 356 357 360 360 361 361 360 359 358 360 361 360 361 361 362 363 363 361 362 364 363 363 364 365 365 360 361 361 361 362 364 364 364 365 363 363 364 364 366 364 365 365 365 365 366 366 366 366 364 361 359
329 329 330 329 329 331 331 331 330 330 329 329 326 326 330 333 335 331 335 337 341 342 341 341 341 340 340 340 340 340 340 340 341 341 342 344 344 344 345 347 347 346 349 350 351 353 355 356 357 358 359 361 360 357 359 359 359 359 360 361 361 364 363 364 364 362 364 362 362 364 362 361 360 359 360 363 362 364 364 365 365 365 364 365 364 365 366 365 365 365 367 367 365 366 364 363 362
326 328 329 328 329 329 329 326 326 327 326 327 323 324 326 332 330 324 335 339 341 340 340 341 340 339 340 340 341 341 340 340 341 343 343 344 344 344 345 347 347 348 350 349 350 353 355 356 357 358 359 361 359 356 358 359 360 359 360 360 361 362 363 363 364 363 362 363 363 367 367 367 362 361 362 363 363 363 365 365 364 365 364 364 366 366 367 367 366 365 366 365 366 365 364 364 364
325 323 322 322 323 323 322 321 321 323 322 325 325 323 326 329 329 325 334 340 341 339 338 339 339 339 340 341 341 342 341 341 343 343 341 342 342 343 344 345 346 348 349 348 350 353 353 355 355 357 359 360 359 357 358 358 359 359 360 360 359 361 363 362 361 362 363 363 366 366 367 366 367 365 366 366 365 364 363 363 364 364 363 365 367 366 366 368 368 368 369 369 368 366 365 365 365
323 321 317 319 319 318 320 318 320 322 321 325 326 323 321 323 322 329 337 340 340 339 338 338 338 339 339 340 340 341 341 342 343 342 342 343 345 345 344 346 347 348 349 350 351 352 352 354 354 357 358 359 359 356 356 358 359 359 359 359 360 359 361 361 361 362 365 366 367 367 368 368 369 368 368 367 367 365 365 365 364 365 366 367 368 368 368 369 369 368 368 368 366 365 363 363 364
321 320 318 316 316 315 319 320 320 320 322 325 325 312 318 322 325 332 339 339 339 337 337 337 338 339 339 340 339 340 341 342 342 343 344 345 346 346 346 347 348 348 350 351 352 351 353 353 355 355 356 357 358 357 357 358 358 359 360 359 360 360 360 360 362 363 365 365 367 368 367 369 368 369 369 369 367 366 366 366 365 364 367 369 369 369 365 366 364 365 364 366 363 363 361 362 360
312 315 315 312 310 310 318 320 320 318 323 324 325 313 317 321 325 334 338 340 337 335 336 337 337 338 338 339 339 339 341 343 342 343 345 346 347 347 347 348 349 349 351 351 350 351 353 354 353 354 357 356 357 357 356 358 359 358 358 360 360 360 361 361 360 361 364 363 365 364 367 369 370 370 371 369 368 367 365 365 367 365 370 369 367 368 365 366 366 365 364 363 364 362 361 363 361
312 307 305 310 308 311 315 319 319 317 320 325 322 314 316 321 325 334 338 339 338 335 336 337 337 337 338 338 339 338 339 342 343 344 345 346 347 347 348 348 349 349 350 350 351 353 353 354 356 353 355 355 357 356 357 358 359 359 359 359 361 361 359 360 360 361 361 362 362 364 368 369 370 371 371 371 368 368 365 365 366 369 371 369 367 368 366 364 365 364 365 364 359 356 360 358 361
307 306 305 306 308 309 312 317 320 321 320 322 321 314 318 318 326 334 338 338 337 336 336 336 336 337 337 337 338 338 339 341 343 344 345 347 347 348 349 350 350 350 350 350 350 352 353 354 355 354 354 353 355 356 358 358 358 359 360 359 358 360 359 359 361 363 362 361 361 360 365 368 369 371 372 372 370 368 366 367 367 369 370 368 367 367 364 365 364 360 365 366 365 360 354 348 352
303 306 304 308 306 309 308 315 317 318 319 316 321 317 318 320 330 334 336 337 336 336 336 336 336 336 337 337 337 338 339 340 340 343 345 346 347 349 350 352 351 351 351 350 351 352 353 354 355 355 356 355 355 355 356 357 357 358 359 359 361 360 360 360 361 361 361 359 361 361 365 367 368 371 372 372 371 369 368 368 369 369 369 370 366 362 364 361 363 363 362 364 356 353 348 345 348
301 303 303 304 308 310 310 310 313 316 316 316 318 318 318 321 328 333 335 337 336 335 336 336 336 336 336 337 337 338 339 339 341 344 346 347 347 349 350 351 351 351 351 350 352 353 354 355 356 356 356 356 355 356 357 357 357 357 358 360 359 361 362 361 360 360 359 361 357 361 368 367 369 371 371 372 371 368 368 368 369 370 369 369 365 361 359 357 359 362 360 360 358 352 348 348 349
303 305 305 305 304 306 308 312 315 314 312 312 314 314 317 320 324 332 334 336 335 335 337 337 336 336 336 336 337 338 339 340 343 345 347 347 348 349 349 351 351 351 351 351 352 352 354 355 355 355 356 356 356 355 356 354 355 353 352 356 356 357 359 359 361 359 360 359 360 362 367 368 370 371 371 372 371 370 368 368 368 369 369 361 360 357 357 360 359 361 360 352 354 354 353 351 352
307 306 306 305 306 308 311 310 313 315 312 312 313 314 314 316 320 329 333 335 334 335 335 335 336 335 336 336 336 337 339 340 344 346 347 347 347 348 350 350 351 351 352 351 351 351 353 353 354 353 355 356 354 353 352 352 351 351 352 353 351 354 357 359 359 359 360 360 363 364 367 367 370 371 371 371 370 370 369 369 369 369 368 364 358 357 358 360 360 360 359 358 352 351 351 350 351
304 305 305 306 307 305 310 310 311 313 310 311 314 312 314 316 319 326 333 333 331 332 334 335 335 336 336 336 336 337 340 343 344 344 346 347 347 348 349 350 351 349 350 351 351 351 353 354 353 354 355 354 355 354 354 353 355 353 353 353 352 352 355 355 355 358 356 357 364 367 368 368 370 370 371 372 371 370 369 367 369 368 368 367 360 360 359 359 359 359 360 354 354 348 350 348 350
305 304 305 304 306 307 309 309 310 312 310 309 312 311 313 315 317 324 331 332 333 334 335 335 336 335 336 336 337 338 339 340 342 343 345 346 347 348 348 349 350 350 350 350 351 351 352 353 354 355 355 354 355 356 356 355 357 358 356 355 353 352 356 358 355 357 359 357 361 366 368 369 370 369 370 371 370 370 369 367 367 368 369 370 366 361 358 360 360 360 360 350 347 349 350 351 351
302 303 302 302 306 305 304 305 307 309 309 309 311 308 312 315 318 321 330 332 334 336 336 336 337 336 336 336 337 337 338 339 340 342 343 345 346 347 348 348 350 350 350 350 350 351 351 353 354 355 355 355 355 357 357 359 359 360 359 358 356 354 354 357 360 361 361 359 359 363 367 369 369 368 368 369 369 370 370 368 367 366 370 371 369 367 364 361 358 358 357 353 350 343 344 346 351
301 301 303 304 304 306 305 305 308 309 310 309 308 308 309 313 312 318 326 332 333 335 335 336 337 338 339 340 339 339 338 339 340 341 343 344 345 345 347 348 349 349 349 350 350 350 350 352 354 355 355 355 356 357 357 359 358 358 357 357 357 356 357 355 355 353 356 359 360 362 362 367 368 367 368 369 368 369 370 370 367 367 367 370 369 367 366 365 366 365 362 358 350 344 341 346 349
299 302 302 304 306 305 306 307 306 306 306 309 307 302 304 313 313 314 323 328 330 334 333 333 335 336 338 337 338 340 340 341 341 341 342 343 345 346 347 348 348 349 349 351 351 351 351 352 354 355 355 355 355 357 358 357 357 355 353 351 349 349 349 349 350 350 351 354 354 360 363 366 367 368 369 368 368 368 369 369 369 367 366 367 367 366 367 367 365 364 363 360 353 351 349 345 347
297 299 304 304 305 306 306 306 306 302 301 306 307 301 301 311 310 313 322 325 327 331 331 332 334 335 336 336 337 338 338 339 341 342 343 343 345 345 347 348 348 348 350 352 352 352 352 353 354 355 355 355 355 357 358 357 356 355 354 352 351 350 348 352 356 356 355 357 360 361 363 366 368 366 367 368 368 369 369 369 369 368 366 367 369 369 367 365 364 364 364 361 357 356 349 345 345
296 304 306 305 304 304 306 306 306 305 308 308 308 305 300 301 309 314 320 322 324 328 330 332 333 335 335 336 337 338 339 340 340 341 342 344 345 345 345 348 348 349 351 352 352 352 353 354 355 355 356 356 356 357 357 357 355 355 355 354 353 352 350 354 358 359 361 363 361 362 362 364 368 368 367 369 369 368 369 368 369 368 367 366 367 366 364 366 367 367 366 364 363 358 351 346 342
301 306 307 306 305 306 307 306 306 306 304 301 306 307 300 301 308 313 320 315 321 325 328 330 332 334 335 336 337 338 339 340 341 340 341 343 344 345 347 347 349 350 351 351 352 353 354 355 355 356 355 356 356 357 357 357 357 356 356 355 354 355 354 356 358 359 359 361 361 362 363 363 367 369 368 368 369 369 368 368 369 368 367 367 368 366 366 367 368 366 366 364 362 360 355 352 349
304 309 309 308 308 308 308 306 305 305 302 299 304 306 299 300 307 308 318 314 314 321 327 330 332 333 335 335 337 338 340 341 341 341 342 344 345 346 347 349 349 349 351 353 353 354 354 355 355 355 355 356 357 357 357 357 357 357 356 356 355 355 356 357 357 357 358 360 359 362 363 363 364 366 369 369 369 369 369 369 367 366 367 365 366 365 366 367 369 368 366 365 365 362 360 357 353
308 307 306 306 307 306 307 307 306 303 296 300 305 306 303 297 305 308 309 309 314 320 326 330 333 334 334 336 337 337 338 339 340 341 342 344 346 346 347 347 349 350 351 353 353 354 354 354 355 355 356 356 357 357 357 356 357 357 356 356 356 355 356 356 356 357 357 359 358 360 361 363 364 364 365 368 368 368 368 369 366 365 367 367 366 367 367 364 363 365 367 367 366 363 362 359 358
307 303 303 303 302 304 304 302 304 296 294 302 305 304 304 296 302 309 313 317 316 318 319 326 329 332 334 335 336 337 338 339 340 340 341 343 344 345 346 347 348 349 351 352 352 353 354 355 355 355 356 357 358 357 357 356 356 356 357 357 356 356 357 355 355 355 357 357 358 359 362 363 364 365 367 365 367 366 368 367 368 367 367 366 366 368 368 366 364 365 367 367 366 366 366 362 360
304 303 302 297 296 297 292 296 292 293 293 301 305 304 300 299 305 310 312 313 314 318 318 321 328 331 334 335 336 337 338 339 339 340 341 341 342 343 344 346 348 349 350 351 351 352 354 355 356 355 356 358 358 358 357 357 357 356 356 357 357 358 358 357 357 356 358 357 358 359 362 360 363 363 365 364 365 366 368 368 367 367 366 367 367 367 367 369 368 366 368 367 366 365 364 364 360
302 300 299 295 292 291 288 292 295 295 299 301 301 304 298 304 306 310 310 313 315 317 321 321 324 331 334 336 337 336 337 338 339 339 340 341 342 343 345 345 347 349 349 350 351 352 354 354 356 355 356 358 359 358 357 357 357 358 358 358 357 358 358 358 357 356 358 359 360 359 359 359 361 362 363 365 365 366 367 368 369 368 369 369 369 369 368 369 369 366 367 367 366 367 367 365 363
303 305 302 299 297 292 289 292 289 291 294 299 303 297 297 297 302 311 312 314 316 317 318 321 326 330 335 336 337 337 337 338 338 339 339 340 341 343 344 345 347 347 348 349 350 352 354 354 355 356 356 358 359 358 358 357 357 358 359 359 359 359 357 357 358 358 359 359 359 359 361 360 360 363 364 368 369 368 368 369 369 368 369 369 369 369 368 368 369 368 368 368 367 367 367 364 363
306 307 307 301 298 303 294 297 295 295 294 294 297 296 304 302 311 311 315 315 315 316 317 319 323 328 331 333 334 335 336 337 338 338 339 341 343 344 344 345 346 346 348 349 350 353 354 354 356 357 357 358 358 359 358 358 358 359 360 359 359 359 359 359 359 360 361 360 361 360 362 363 363 364 367 368 368 368 368 368 369 368 370 369 369 369 369 367 369 366 366 367 367 366 366 365 364
302 304 299 302 309 305 299 299 302 299 296 293 301 299 302 307 308 310 311 311 312 314 315 317 319 323 330 330 332 335 336 337 337 338 338 341 342 343 343 345 345 346 347 347 351 353 354 355 355 356 357 358 358 359 359 359 360 359 359 359 359 358 358 357 356 358 356 359 361 360 360 361 363 366 366 367 367 369 369 369 368 366 369 369 369 369 369 369 370 368 365 367 366 365 366 366 364
304 298 302 308 310 308 302 293 297 294 291 296 297 295 297 299 296 308 310 309 310 312 313 314 318 324 327 328 332 334 336 337 339 339 340 341 342 342 342 344 345 346 346 348 352 353 355 355 355 355 356 356 357 358 358 359 359 359 359 359 359 359 357 357 357 357 358 359 360 360 360 360 361 361 363 363 366 367 368 368 368 368 368 368 368 368 369 369 370 367 367 368 367 368 367 366 366
304 303 311 301 296 295 301 299 290 290 290 292 296 298 298 300 300 305 306 308 310 313 315 314 315 321 324 327 331 335 336 337 338 338 340 340 341 341 342 343 345 346 348 349 351 351 353 354 354 354 355 356 356 356 358 359 360 358 358 359 359 359 358 358 358 360 360 359 357 358 358 359 359 362 364 365 365 365 366 367 368 367 368 367 368 367 369 369 370 367 366 366 367 369 366 365 367
307 308 305 308 304 300 297 298 299 298 292 292 293 296 294 302 303 305 306 310 311 312 315 314 315 319 323 327 329 332 335 336 337 338 339 339 340 341 341 342 343 345 346 347 348 349 350 351 354 354 355 356 357 357 358 358 359 359 358 359 360 360 360 359 359 360 358 358 358 357 358 357 359 360 360 363 363 363 364 364 364 364 364 366 367 366 367 368 369 367 366 364 365 369 366 365 365
302 302 301 303 303 306 305 304 299 296 294 293 293 292 297 304 308 307 308 310 315 314 316 320 318 319 322 327 329 332 334 335 337 338 339 339 340 341 341 343 343 345 347 347 347 348 348 350 351 352 353 354 354 355 357 358 359 358 360 359 359 360 359 359 359 359 358 358 359 359 358 358 361 359 360 360 361 362 364 363 362 364 363 365 367 366 367 368 367 365 365 365 367 368 367 365 366
297 298 300 301 301 298 295 294 303 300 296 292 293 292 300 306 312 310 309 311 313 317 317 319 320 320 323 325 329 333 334 336 337 338 339 339 341 341 341 342 343 344 344 344 345 347 348 349 350 351 352 353 353 354 357 358 358 359 359 359 359 359 359 359 358 358 358 358 359 359 360 360 359 360 360 359 361 361 363 363 362 364 365 366 368 368 366 367 366 365 364 363 363 364 364 366 367
Wind_Speed
11 9 8 8 7 5 5 2 2 2 2 2 4 2 1 1 2 3 3 5 4 1 1 9 12 11 3 3 4 6 5 12 2 6 3 3 8 15 13 14 12 11 11 11 9 10 10 10 11 12 13 13 13 13 14 14 14 14 14 14 14 14 14 14 14 14 13 13 13 13 12 13 13 13 12 12 12 11 11 11 10 11 11 10 10 10 10 10 12 13 12 13 13 13 13 12 12
8 8 8 7 6 5 3 3 2 3 4 3 0 1 1 1 3 3 4 4 2 6 8 12 9 6 8 11 9 9 10 8 3 4 3 8 14 11 13 15 15 14 12 12 11 10 9 11 10 12 12 13 13 13 13 13 14 14 14 14 14 13 14 14 13 13 13 13 12 12 12 12 12 12 12 12 12 11 10 11 11 10 10 10 10 9 9 12 12 13 13 13 13 13 13 12 11
9 9 8 6 4 2 2 0 2 2 3 1 2 1 2 2 1 2 4 3 6 9 12 12 11 8 9 9 7 1 5 4 8 9 8 15 15 10 15 16 14 13 14 11 10 11 9 10 9 11 12 13 13 13 13 13 13 13 13 13 13 13 13 13 13 13 13 13 12 12 13 12 12 12 12 12 12 11 11 10 10 10 10 10 10 10 9 11 12 14 12 13 13 12 12 12 11
10 8 7 7 4 1 2 3 2 3 2 3 2 2 2 0 3 5 4 7 10 12 12 13 7 3 4 6 4 7 6 5 5 13 11 13 10 16 16 15 14 12 11 10 10 10 8 11 9 10 12 12 13 13 12 13 13 12 12 12 13 13 13 13 13 12 13 13 12 12 12 12 12 12 12 12 11 11 10 10 9 10 11 11 10 9 9 9 12 13 12 13 13 12 12 11 11
9 7 6 3 2 3 2 1 2 1 1 0 2 2 2 2 6 7 7 8 12 11 13 7 6 5 6 7 2 1 5 7 10 8 12 10 12 16 16 15 13 12 11 11 11 10 10 12 10 11 12 13 12 12 12 12 12 12 12 13 11 12 13 13 12 11 12 11 12 12 12 12 12 11 11 11 11 10 9 9 10 10 11 11 10 9 8 8 9 12 12 12 12 12 11 11 10
7 6 5 3 2 2 2 2 2 4 4 2 4 3 2 4 7 8 9 9 10 10 8 6 5 7 4 4 2 2 8 4 10 9 16 10 18 18 18 15 14 13 12 11 10 8 10 13 12 12 12 12 12 12 12 12 11 11 11 12 11 11 13 14 12 11 11 12 11 11 11 12 12 11 11 10 10 10 10 10 9 10 11 9 8 7 7 8 10 13 12 12 12 11 11 10 9
8 7 3 3 4 2 3 3 3 3 2 3 3 2 3 6 8 10 10 10 9 7 4 6 10 10 7 4 7 5 2 4 11 12 12 18 18 18 18 15 15 15 13 11 10 10 12 13 13 12 12 12 12 12 12 11 11 11 11 14 11 13 11 13 12 13 12 11 11 11 11 11 11 11 11 11 10 10 11 10 8 9 10 9 6 7 6 7 11 13 12 11 11 10 10 10 9
5 1 5 3 1 2 3 3 4 2 1 3 1 2 6 8 10 10 12 10 11 10 8 10 7 5 6 2 3 4 4 4 8 15 16 18 19 19 17 16 16 15 14 12 10 10 13 13 13 12 12 12 12 11 11 11 11 12 11 11 12 12 12 11 12 12 11 11 11 10 10 11 11 11 11 10 10 10 12 10 10 9 9 8 7 6 7 10 10 13 12 11 11 10 11 10 8
6 3 2 3 2 0 3 3 4 3 5 5 2 2 7 9 10 11 10 7 11 9 11 12 7 4 5 6 5 4 5 9 13 16 21 20 20 20 14 17 17 15 14 13 11 11 11 13 13 12 12 11 11 11 11 11 10 11 11 12 12 12 11 11 11 11 11 11 10 10 10 10 10 10 11 11 10 11 12 11 9 8 9 9 9 9 8 7 10 12 12 11 10 11 10 9 9
4 2 3 1 2 3 3 1 3 2 1 2 2 7 9 10 11 9 10 11 10 13 9 6 2 6 10 7 5 4 6 12 16 17 19 20 19 18 17 17 16 17 15 13 11 11 9 13 13 12 11 11 11 11 11 10 10 12 11 12 11 11 11 11 11 11 11 11 10 10 10 10 10 10 10 10 10 10 12 12 8 9 10 10 10 9 7 7 9 11 12 11 11 11 10 9 9
3 3 3 2 1 3 3 2 2 2 1 3 4 7 9 9 10 9 9 9 11 10 8 8 8 12 9 6 4 5 10 14 17 20 19 19 18 18 17 16 16 16 15 14 12 11 10 11 14 12 11 11 11 11 11 10 10 11 12 12 12 11 11 11 11 11 11 11 10 10 10 10 10 9 9 9 9 9 9 11 11 11 10 10 10 7 5 4 6 11 12 12 10 10 10 10 9
2 3 2 3 3 3 2 4 5 3 1 3 4 8 6 10 8 9 11 12 9 9 9 9 7 11 8 6 4 8 12 14 15 19 19 18 17 18 17 14 15 15 14 13 12 10 11 11 10 12 12 11 10 10 11 10 11 10 11 11 11 11 11 10 10 10 10 10 10 10 10 10 9 9 9 9 9 8 9 9 10 11 9 10 8 7 7 4 7 6 14 12 11 10 10 10 10
3 1 2 2 2 3 4 6 1 3 1 4 6 6 8 10 9 9 11 9 9 9 7 4 14 5 6 5 6 10 13 14 15 19 19 17 17 15 15 14 15 15 14 12 12 11 11 11 10 10 10 11 10 10 10 10 11 10 10 12 11 10 10 10 10 9 9 9 9 9 9 9 9 9 9 8 9 8 8 9 10 14 13 11 9 6 7 3 1 9 14 14 13 11 10 10 9
2 1 0 3 1 5 5 3 3 3 1 4 4 8 9 8 6 8 9 10 9 7 6 11 10 8 9 7 8 9 11 15 17 19 17 17 15 15 16 15 15 15 14 13 12 11 11 11 10 10 10 9 8 9 10 11 11 13 11 11 11 10 10 10 9 9 9 9 9 9 9 9 9 9 8 8 8 8 8 8 11 13 16 17 13 8 10 7 6 8 11 16 12 11 10 10 10
3 1 1 2 4 4 3 2 3 1 3 4 6 10 8 2 5 7 9 10 6 6 10 7 7 8 5 11 9 12 15 18 19 19 18 16 16 16 16 14 15 14 13 13 12 11 11 10 11 9 9 8 8 6 7 7 11 11 11 11 10 10 10 9 9 9 9 8 9 9 9 9 9 10 9 8 8 8 7 7 8 9 11 11 13 14 13 15 10 10 11 15 13 10 9 11 11
3 2 2 2 3 3 2 3 2 1 3 4 7 8 7 4 5 8 5 4 7 7 11 5 7 2 7 11 12 16 19 19 19 19 18 18 17 15 14 15 13 13 12 12 11 10 10 10 9 9 8 7 7 6 7 9 11 11 10 11 10 10 9 9 9 8 8 9 9 9 9 8 8 9 10 8 8 8 8 7 7 7 8 8 9 7 9 10 11 11 11 14 11 10 11 11 8
4 2 3 3 4 4 1 3 2 3 3 4 8 11 8 6 5 3 4 8 12 10 4 5 7 1 8 7 15 19 20 19 19 20 18 16 14 13 11 12 11 11 10 12 10 9 10 10 11 9 8 8 8 7 7 7 8 11 10 10 10 9 8 8 8 8 8 8 8 8 7 6 6 6 6 6 6 6 8 7 7 8 8 8 8 8 8 10 12 13 12 12 12 11 9 10 8
4 4 4 6 4 5 2 2 1 3 2 6 10 11 9 9 8 6 8 7 9 9 5 7 7 7 9 12 18 19 20 21 21 22 19 16 14 14 13 12 12 11 11 11 10 10 9 9 10 10 8 9 8 6 5 5 7 8 8 8 7 7 7 7 7 6 6 6 7 5 5 5 5 5 5 6 5 5 7 7 8 7 7 7 8 9 8 10 13 14 11 13 12 16 15 9 6
6 4 5 6 5 2 1 1 2 4 4 7 8 10 9 8 11 9 7 9 11 8 6 8 10 11 14 17 20 21 22 21 22 21 21 20 17 18 15 14 13 13 12 10 10 11 9 9 10 10 10 9 9 7 5 6 7 6 7 7 6 7 6 5 5 5 4 5 4 4 4 4 5 4 4 5 5 7 7 7 7 6 6 7 7 8 9 9 13 14 13 10 11 14 11 7 7
8 5 7 9 5 3 4 5 6 4 3 7 7 9 7 8 8 9 7 11 11 11 9 9 11 13 15 19 21 21 21 22 21 20 21 20 19 18 17 17 15 14 13 11 10 9 10 9 10 10 10 10 8 6 6 6 6 6 6 6 5 5 5 4 4 5 4 3 4 3 4 4 4 4 6 7 6 4 5 6 7 5 4 6 6 5 7 8 9 11 10 9 8 5 5 5 4
6 7 8 2 2 5 2 1 3 5 3 5 6 6 6 9 7 9 8 10 10 9 13 16 16 17 19 21 22 22 22 22 21 19 19 18 18 16 16 15 14 14 12 11 11 10 11 10 10 10 10 9 8 6 7 6 6 6 5 5 5 5 4 4 4 4 4 3 3 3 3 3 3 3 3 3 3 3 3 3 3 3 2 3 3 4 3 4 3 4 3 4 4 4 5 5 4
4 11 8 4 1 2 2 4 4 7 2 3 6 10 8 8 7 10 13 10 8 12 14 12 16 20 22 24 24 22 23 22 21 20 19 18 19 18 16 14 14 13 12 12 12 11 12 10 10 9 10 10 8 6 7 6 6 6 6 5 5 5 4 4 4 3 4 3 2 3 3 3 2 2 2 2 2 2 2 2 2 2 2 2 2 3 3 2 2 3 3 4 3 4 4 4 4
8 9 12 9 8 7 2 6 6 8 5 1 6 6 5 12 7 11 14 15 2 2 12 13 17 20 22 22 23 23 23 23 22 22 20 19 18 17 17 16 15 14 13 12 12 11 12 11 11 11 10 9 9 6 6 7 6 6 5 6 6 5 4 4 4 3 3 3 2 2 2 2 2 2 2 2 1 1 2 1 2 2 1 2 2 2 3 2 2 2 2 3 3 3 4 3 3
11 7 3 7 7 12 9 10 10 9 7 7 5 6 9 11 8 10 13 11 2 8 14 15 16 17 20 22 23 23 23 23 22 20 19 18 18 17 16 16 15 13 13 14 13 12 12 14 12 12 10 10 9 7 7 7 6 6 6 6 5 5 5 4 4 3 3 3 3 2 2 2 2 2 2 1 1 1 1 1 1 1 2 2 2 2 1 1 1 1 2 2 2 2 3 2 2
13 12 10 10 7 8 7 7 8 8 8 8 5 8 10 13 9 10 13 9 6 11 15 17 17 18 19 21 21 20 19 18 18 19 16 13 15 14 13 12 14 14 16 15 13 12 13 13 13 13 12 11 10 8 7 6 7 7 7 7 6 6 5 4 4 3 3 3 3 3 3 3 2 2 2 1 0 1 1 2 2 2 2 1 1 1 1 1 2 1 1 1 1 1 1 2 2
15 14 4 4 5 6 7 10 11 11 8 6 7 10 10 13 6 11 11 11 11 14 16 18 19 19 19 20 21 20 20 20 19 19 18 15 15 16 15 13 14 15 14 14 14 12 13 13 14 14 13 11 10 9 6 6 7 7 7 7 6 6 5 4 4 4 3 3 3 3 3 2 2 2 1 1 0 0 0 1 1 1 1 1 1 1 1 1 1 1 0 1 1 1 1 2 1
3 11 14 14 14 13 11 11 11 10 10 8 9 10 11 9 9 7 11 13 14 16 17 18 20 20 19 18 18 18 20 21 21 17 15 14 15 15 15 14 14 14 14 15 14 12 12 14 14 14 13 11 10 10 7 6 6 7 7 7 6 6 5 5 5 4 3 3 3 3 3 3 2 2 1 0 0 1 0 1 0 1 0 1 2 2 2 2 1 1 1 1 1 1 1 1 1
5 2 5 9 10 12 13 12 13 8 9 9 11 12 10 9 11 11 11 15 18 18 18 18 18 18 17 19 18 17 17 17 16 17 20 19 15 15 16 14 15 14 15 16 13 13 14 16 15 14 13 12 11 11 9 7 7 7 7 6 6 6 6 5 5 4 4 3 2 3 3 3 2 1 1 1 1 1 1 1 1 2 2 2 2 2 2 1 1 1 1 1 1 1 1 0 0
8 6 8 6 8 12 12 12 9 7 8 6 7 9 9 9 10 9 13 15 17 18 18 19 18 16 16 17 16 15 16 16 15 15 18 16 14 14 17 15 15 14 11 14 14 15 15 16 14 15 14 12 13 12 10 7 6 6 7 6 6 6 6 5 4 4 3 3 3 3 3 3 3 2 1 1 1 1 2 2 2 2 2 2 2 2 1 1 0 0 0 0 0 0 0 1 1
5 8 9 11 9 10 9 8 9 9 8 5 5 6 5 10 12 11 15 16 16 16 16 17 15 15 15 17 16 16 15 17 17 16 15 15 15 15 16 16 16 13 11 12 15 15 13 12 11 12 13 14 14 11 10 7 7 6 5 5 5 6 5 5 4 4 3 3 3 4 3 3 3 2 2 1 2 2 2 2 2 2 2 2 2 1 1 1 1 0 1 0 1 1 1 0 0
9 7 4 8 7 7 3 1 4 10 5 10 9 8 7 3 9 12 16 19 19 17 16 17 16 15 15 16 15 17 18 17 19 18 17 16 15 14 15 15 15 14 10 12 16 16 16 13 11 11 13 14 13 12 11 9 7 6 6 5 5 6 5 4 4 4 4 3 3 3 4 3 3 3 2 2 2 2 3 2 3 2 1 1 1 2 1 1 0 0 0 1 0 1 1 0 1
5 6 9 7 7 9 3 3 3 6 4 10 10 8 10 9 6 14 16 17 19 17 17 17 16 16 17 16 17 17 17 18 19 19 18 18 16 14 15 16 15 15 14 14 14 14 15 15 15 13 15 15 14 13 11 10 7 6 6 5 5 6 4 4 4 4 4 3 4 3 4 4 3 3 3 2 2 2 3 3 2 2 2 1 2 2 2 2 1 1 1 1 1 1 1 2 1
4 9 5 8 7 11 8 4 8 11 5 7 13 6 2 4 6 14 16 18 18 16 17 17 18 18 17 16 16 16 16 17 17 19 19 17 16 14 14 15 15 16 14 14 14 14 15 15 15 15 15 16 14 13 12 10 9 7 6 6 6 6 5 5 4 4 4 4 4 4 3 4 3 3 3 2 2 3 3 3 2 1 1 1 2 3 3 3 3 3 1 1 2 2 3 2 1
8 8 10 5 10 9 8 2 4 6 10 7 12 11 11 6 6 13 15 18 18 15 17 18 17 16 17 15 16 16 17 18 19 19 20 19 15 17 14 14 15 15 14 15 15 15 15 15 14 13 12 14 13 13 12 10 10 9 6 6 6 6 6 5 4 4 4 4 4 4 4 4 3 4 3 2 2 3 3 3 2 1 0 2 3 3 3 3 3 2 3 2 2 2 2 2 1
10 9 9 6 6 7 8 4 4 3 6 8 10 13 12 5 3 11 15 17 18 17 17 19 18 17 16 15 16 18 17 19 20 19 21 20 18 17 15 15 15 15 13 15 14 13 12 12 12 13 12 12 13 13 12 10 9 9 7 6 6 6 5 5 4 4 4 4 5 4 4 4 4 4 3 3 2 2 2 2 2 1 0 2 3 3 3 2 3 2 3 2 1 2 2 2 2
10 8 8 5 9 10 10 8 5 4 3 6 9 10 9 10 7 8 11 14 17 16 13 13 15 15 16 16 16 16 17 19 17 19 21 19 17 17 15 15 14 14 14 14 15 14 13 12 13 13 11 12 11 11 10 10 9 10 9 6 6 6 5 5 5 5 5 5 5 5 4 4 4 3 3 3 2 2 2 2 2 2 1 4 3 2 2 2 3 2 3 3 2 2 3 2 1
1 7 8 9 10 10 5 2 5 3 6 9 9 10 11 10 9 10 13 13 12 11 14 14 15 15 16 16 17 18 19 18 16 18 20 21 20 17 16 15 15 15 15 15 15 15 15 14 13 14 13 13 12 12 12 12 11 10 10 8 8 7 6 6 5 5 6 5 5 5 4 4 4 4 4 3 3 2 2 2 1 2 2 4 3 3 4 3 3 2 2 2 2 2 1 1 1
4 2 7 9 10 11 4 0 0 2 5 6 2 5 10 8 6 8 10 13 15 16 16 15 16 17 16 19 19 18 16 11 15 16 19 19 18 19 17 15 16 18 16 16 16 16 15 15 15 14 12 14 13 12 11 11 10 10 9 9 8 7 7 6 6 6 7 6 5 5 5 5 4 4 4 4 3 3 3 2 2 3 2 3 6 4 5 4 3 3 3 2 1 2 1 1 2
10 6 4 4 8 5 9 7 7 8 6 9 9 12 13 11 7 8 13 16 16 18 19 19 19 19 16 17 18 16 15 16 17 18 20 19 21 21 17 16 16 18 17 17 16 16 16 15 14 13 13 14 13 13 10 10 9 8 8 6 7 5 5 5 6 5 6 7 6 6 6 5 5 4 4 4 4 4 4 4 3 3 3 2 4 6 4 3 3 4 5 4 2 1 1 1 2
12 10 8 9 3 6 8 5 3 1 5 5 3 8 11 5 2 8 14 15 15 16 17 15 16 19 20 20 20 19 20 18 20 21 22 20 21 20 18 17 17 17 16 16 17 18 14 14 14 14 13 13 12 12 11 10 9 8 7 4 5 5 4 5 5 5 6 7 8 7 6 6 6 5 5 5 4 4 5 5 4 3 3 2 2 3 5 5 6 5 5 4 3 3 2 2 2
14 15 12 9 6 7 4 2 7 6 6 6 7 10 11 10 9 6 9 13 11 9 11 12 12 12 11 10 13 16 21 21 20 20 20 20 21 21 20 18 17 17 17 17 17 16 12 16 15 15 13 13 11 12 12 10 8 8 6 4 5 5 3 5 6 7 8 7 7 7 7 6 6 6 5 6 5 5 5 5 5 4 4 3 3 3 3 3 3 3 5 4 4 3 3 2 2
11 17 17 12 7 7 6 5 6 4 5 4 4 7 11 8 9 13 6 9 12 11 13 16 16 15 14 16 18 16 16 16 19 22 23 23 21 19 19 19 19 18 17 17 16 17 15 15 15 15 12 12 12 13 13 11 10 10 9 9 8 8 8 8 9 10 9 8 9 8 7 7 6 6 5 5 6 5 5 5 5 5 5 4 4 4 3 2 3 3 4 4 3 2 2 2 3
10 12 16 16 12 9 8 9 5 6 8 2 2 9 11 5 7 8 7 10 14 12 15 17 15 15 16 16 15 17 18 17 18 18 18 20 20 20 21 21 20 19 18 16 16 17 17 15 16 16 13 12 12 13 14 13 11 10 12 12 11 10 10 8 8 7 7 6 6 7 6 6 6 7 6 6 6 6 5 5 5 5 5 5 4 4 4 4 3 3 3 3 3 2 2 3 4
13 3 9 13 15 13 11 9 8 8 6 10 10 5 9 10 8 6 6 10 11 12 15 16 14 16 19 17 18 17 18 19 18 20 21 21 22 22 23 22 20 19 18 17 16 16 18 16 16 16 13 12 12 12 14 13 12 12 13 12 11 10 10 8 8 7 6 5 6 7 6 6 6 6 6 6 6 6 6 6 6 5 5 5 4 5 5 4 2 2 3 3 2 3 3 3 4
5 5 7 12 14 15 13 10 9 8 6 10 9 6 5 10 3 4 6 8 10 13 14 14 15 16 18 18 18 19 20 20 20 19 21 22 22 23 21 21 21 20 18 18 17 16 16 16 16 15 15 14 13 15 14 15 13 13 12 12 11 9 9 8 7 7 6 6 7 7 6 6 5 6 6 6 6 7 6 6 6 6 6 6 5 6 6 5 4 4 4 4 4 3 3 3 2
12 2 11 10 11 11 13 11 10 9 8 15 12 10 10 13 11 6 6 8 11 11 13 14 16 18 18 18 18 18 17 16 18 19 20 21 21 22 21 20 20 20 18 17 17 16 16 15 16 17 17 14 13 16 15 16 16 13 12 12 13 10 8 7 7 7 7 7 8 8 7 6 6 6 6 7 6 7 7 7 6 7 7 6 6 7 6 5 4 4 5 5 5 5 3 3 4
5 8 3 5 10 10 9 10 8 7 14 17 14 12 13 12 16 10 9 10 8 4 7 10 14 16 16 17 18 17 17 18 17 18 19 19 19 20 20 21 21 20 17 18 17 17 16 16 17 18 18 14 15 16 17 17 16 14 13 14 14 13 12 10 8 8 8 8 8 9 8 7 6 6 6 6 8 8 8 7 7 7 6 6 6 6 6 6 5 5 4 4 4 5 4 4 3
10 10 9 5 5 3 6 5 7 12 17 10 14 14 14 15 16 12 9 5 6 8 10 12 14 17 17 16 17 19 19 18 18 17 18 20 19 20 19 20 20 21 19 19 18 17 17 16 17 18 17 16 15 16 16 16 15 15 14 15 14 13 13 11 12 11 11 11 10 9 7 6 6 6 6 6 7 8 7 7 7 7 6 6 6 6 6 6 5 4 4 4 4 5 3 3 4
14 10 11 11 6 6 9 7 12 15 12 5 11 12 11 21 16 14 10 7 10 11 11 11 13 15 16 16 18 17 17 17 17 17 16 18 20 20 22 21 20 20 18 20 20 19 18 17 19 19 18 18 16 16 17 17 16 15 15 15 14 12 12 12 12 11 11 10 10 9 8 8 7 7 7 7 7 8 7 7 7 7 6 7 7 6 6 6 5 5 4 5 5 5 5 5 4
15 14 12 12 11 11 11 11 8 8 8 1 2 9 15 6 6 17 22 18 12 12 12 13 13 14 15 16 16 16 16 18 18 18 19 19 19 20 20 21 20 19 20 20 20 19 17 16 19 19 19 18 16 17 17 17 17 16 15 14 13 12 12 12 11 11 11 10 9 10 10 9 8 9 8 7 6 8 7 8 8 8 8 7 7 7 6 6 6 6 6 5 6 5 4 5 5
14 13 14 12 10 9 12 9 12 10 5 7 12 5 6 6 5 11 16 15 16 14 15 15 14 13 13 15 15 18 17 18 18 18 19 20 20 21 20 20 19 19 22 21 19 18 17 17 18 20 19 18 18 18 17 18 16 16 14 14 13 12 12 11 11 10 10 10 9 10 9 9 9 8 8 6 7 7 8 7 8 8 8 8 7 7 6 6 7 6 6 6 5 5 5 5 5
13 13 11 14 16 8 9 3 8 7 8 8 11 11 1 5 4 6 7 10 12 14 16 17 16 12 11 11 13 16 17 18 18 19 20 20 19 20 19 19 19 19 21 20 21 19 18 17 18 20 20 19 19 18 17 17 16 14 15 15 15 14 11 11 10 9 8 10 10 10 9 9 8 7 7 6 7 7 7 7 7 8 7 8 8 8 7 7 7 7 6 6 6 4 5 6 5
10 12 16 14 7 9 10 5 3 3 4 13 5 7 12 5 10 9 9 11 11 10 13 15 16 14 12 13 14 16 17 18 19 20 20 21 20 21 21 21 20 20 21 22 20 19 20 18 18 19 19 18 19 19 18 16 16 15 16 16 15 15 14 14 13 13 14 11 10 10 9 10 9 7 7 7 7 7 7 7 7 8 8 7 8 8 8 7 7 7 7 7 7 6 5 6 5
6 12 13 6 7 10 9 10 5 10 12 5 7 13 11 9 10 11 11 9 11 11 12 15 17 13 14 14 14 15 17 20 22 22 21 21 21 23 23 21 23 23 24 22 20 19 18 18 20 20 19 19 19 19 18 17 16 16 15 16 16 16 15 15 14 13 12 11 10 9 9 8 10 9 8 7 8 8 8 8 8 8 7 8 8 8 8 8 7 7 7 7 7 6 6 5 5
11 8 10 10 10 12 12 7 13 12 13 9 8 6 11 10 10 5 16 17 14 12 10 13 14 11 15 14 16 16 18 17 16 18 17 18 19 20 21 24 25 24 22 22 20 21 19 19 20 21 22 21 21 18 18 15 16 13 13 16 17 15 14 14 13 12 12 11 13 11 12 11 10 9 8 8 8 9 8 8 8 8 8 8 8 8 7 7 8 7 7 7 7 6 6 7 6
5 1 11 11 4 10 11 13 6 5 11 6 9 9 11 9 11 10 8 12 17 16 9 11 13 13 14 14 15 15 15 16 17 18 19 21 22 24 26 25 25 25 24 22 24 21 23 22 20 20 20 19 19 19 17 17 17 15 14 14 15 15 14 14 13 13 12 13 13 12 13 12 11 10 10 10 9 10 10 10 9 9 9 9 9 8 8 8 7 7 7 7 7 7 7 8 8
13 13 10 7 9 2 9 8 13 10 9 10 7 7 7 8 8 12 14 13 11 14 12 9 11 13 15 14 14 14 16 16 16 18 20 22 23 24 24 23 23 22 20 20 22 23 23 21 21 22 22 21 21 20 18 16 15 15 15 16 16 15 16 14 14 14 13 13 12 12 12 11 10 10 10 10 11 11 10 10 10 9 10 9 8 8 8 7 7 8 9 8 8 7 8 7 7
3 3 3 3 10 11 13 14 11 13 11 7 7 11 3 2 4 11 16 15 13 11 12 10 12 13 13 12 13 13 14 16 17 19 20 20 21 22 21 20 18 18 20 23 22 21 22 23 22 22 21 20 21 20 18 17 16 15 17 17 17 15 15 14 15 14 14 13 12 12 11 10 11 11 10 11 11 10 10 10 10 10 10 9 8 9 9 8 8 8 9 8 9 10 10 9 8
Wind_Direction
154 156 143 145 148 141 153 181 209 166 230 258 290 246 82 248 226 185 146 148 154 115 114 126 127 132 144 164 115 77 32 158 12 184 106 94 138 139 150 148 140 143 141 144 143 137 136 126 127 124 121 120 118 117 116 115 114 113 113 114 113 113 112 110 110 109 109 110 110 112 112 111 111 110 109 106 104 104 103 99 99 95 92 88 90 99 103 102 95 91 88 90 93 96 97 99 99
148 145 143 151 154 160 169 186 265 184 206 288 218 296 28 121 197 221 173 170 132 146 145 133 129 101 103 110 115 112 57 36 29 85 85 134 139 140 151 147 146 145 146 145 142 139 138 131 131 128 124 124 122 120 118 115 113 112 114 114 112 113 112 110 111 110 112 112 112 112 111 110 110 108 105 103 104 104 101 99 95 91 90 88 89 96 100 95 93 93 93 94 96 100 103 97 88
149 151 145 153 148 269 76 288 268 6 316 323 30 279 78 214 179 127 124 129 136 135 142 130 105 96 116 124 127 33 128 59 103 116 118 149 139 153 151 148 147 145 146 146 142 142 140 132 131 128 127 126 125 122 119 115 114 115 116 115 113 111 112 112 112 112 112 113 114 114 113 113 112 109 105 104 104 101 98 93 89 89 86 85 83 79 78 89 92 91 93 96 99 102 101 99 93
151 156 152 166 151 290 184 191 247 307 306 344 324 118 233 120 132 111 108 123 136 144 144 142 121 352 165 137 92 88 95 127 136 137 135 162 155 149 151 146 144 146 144 146 142 143 143 133 130 129 129 129 126 123 120 119 119 119 115 112 111 112 111 108 109 111 112 113 115 115 114 112 109 107 105 105 103 102 99 98 93 86 83 82 82 82 73 70 90 98 101 101 104 102 97 95 98
154 157 162 184 166 201 242 249 323 302 315 69 8 16 191 146 121 126 122 135 144 150 155 124 109 55 56 78 91 199 131 105 132 148 144 148 144 147 147 143 143 144 146 146 144 142 140 131 131 133 133 132 127 124 123 121 121 120 116 112 114 115 115 110 103 110 107 111 113 113 112 110 108 107 105 104 102 98 96 90 86 82 82 77 72 73 81 79 89 98 93 96 97 96 101 100 95
144 154 169 353 244 8 252 242 237 258 283 277 286 48 133 142 138 134 129 137 147 150 141 131 125 146 131 39 16 119 131 140 155 152 152 150 151 148 145 144 143 144 143 144 144 145 141 137 135 136 136 133 129 126 126 122 123 122 122 111 110 114 111 113 119 116 113 115 111 110 107 107 107 106 104 101 99 97 92 87 80 77 82 83 77 70 73 94 96 91 92 94 101 114 103 95 96
148 148 198 259 262 217 311 296 290 291 359 231 259 338 158 147 135 136 132 129 150 140 144 130 119 117 111 121 95 78 34 103 153 152 159 147 146 148 146 146 144 144 146 148 150 145 141 140 137 137 139 135 132 130 128 127 127 123 115 124 130 114 109 117 125 113 114 108 109 109 107 106 107 106 104 101 98 96 91 88 85 87 86 90 91 82 60 72 92 92 92 93 92 86 88 88 81
167 190 174 216 234 220 262 292 277 252 107 212 356 305 159 149 150 148 145 150 156 162 157 142 150 108 90 149 148 82 58 130 127 139 142 147 148 148 149 146 147 148 149 148 148 143 140 144 139 139 140 138 134 134 132 131 128 122 125 121 116 115 121 120 107 110 108 107 106 104 105 107 107 105 104 101 98 95 95 93 90 90 96 87 79 65 64 72 89 94 90 89 84 86 79 78 80
172 274 137 244 251 238 274 280 299 241 262 244 198 111 146 153 155 149 149 145 148 156 157 162 160 150 137 115 89 89 88 118 115 132 145 148 150 150 150 150 150 149 148 148 146 146 147 144 141 141 142 141 139 137 134 131 128 117 122 118 114 115 114 107 109 108 107 107 105 105 105 105 105 104 103 102 101 98 96 93 92 104 106 98 83 73 53 41 80 94 96 89 90 85 79 82 79
183 279 173 296 344 275 305 233 257 64 283 99 165 153 152 156 153 157 149 151 156 153 150 153 170 118 136 114 115 139 130 128 126 138 148 151 149 151 150 151 149 148 147 148 148 148 145 144 142 144 145 145 142 139 134 129 132 126 131 121 119 114 112 112 110 108 107 104 103 103 105 105 102 102 103 105 105 103 107 110 109 91 87 76 73 63 53 41 92 104 99 95 92 89 81 78 89
172 194 263 267 236 295 270 343 292 293 155 134 127 151 154 159 155 153 157 141 150 152 138 140 108 128 138 115 79 89 135 136 142 149 152 151 151 152 150 151 151 150 148 148 149 146 146 148 145 146 148 148 144 143 138 136 137 131 124 124 120 113 113 113 110 106 105 104 105 107 103 99 98 97 98 99 102 103 103 114 118 106 102 102 99 100 94 66 89 111 104 101 95 90 90 86 90
208 191 173 276 279 286 305 305 315 347 163 182 138 158 164 159 155 152 151 147 155 146 157 180 141 140 125 126 127 139 142 147 147 149 152 152 153 152 150 150 151 152 149 149 148 149 150 149 151 149 150 150 147 143 136 139 130 131 128 123 118 115 115 116 113 110 108 108 107 106 103 100 98 96 97 98 98 101 103 101 108 105 89 88 102 107 92 64 88 130 117 111 106 97 90 90 94
258 198 217 272 261 258 298 281 311 311 252 198 156 166 161 164 172 156 155 142 156 153 162 166 134 156 127 134 123 141 152 149 147 152 152 156 153 150 150 150 153 152 152 150 150 151 152 153 152 155 151 149 148 147 139 139 128 129 138 123 120 120 119 116 113 112 111 111 110 106 103 102 102 104 103 103 103 103 103 103 107 109 101 74 52 61 68 83 106 135 125 113 110 102 96 97 100
236 259 245 270 269 277 276 286 281 287 116 98 130 147 166 172 163 150 143 146 159 167 120 138 146 120 103 114 142 156 155 152 151 154 154 154 153 152 153 151 154 153 154 153 153 153 155 155 153 153 151 154 151 150 143 137 142 142 137 125 124 123 121 117 115 113 110 108 106 105 104 101 93 88 86 92 94 97 96 101 100 106 121 135 140 156 151 146 184 113 109 113 104 101 96 92 101
222 230 207 265 278 290 218 232 52 315 85 156 130 152 164 148 151 154 164 145 141 99 118 137 148 164 174 166 167 169 158 157 154 155 154 153 154 152 153 153 153 153 156 156 154 158 157 155 156 153 153 152 155 156 137 152 142 142 132 129 128 126 122 120 116 112 110 107 102 100 101 100 100 96 97 89 83 83 94 92 86 99 116 133 140 148 154 153 130 113 104 106 104 106 106 100 97
224 253 218 261 264 271 162 237 208 236 98 162 145 148 139 106 165 158 155 145 118 134 152 151 192 292 145 185 166 159 155 153 154 155 153 153 152 152 152 154 155 156 158 157 158 160 159 158 157 154 154 152 159 156 154 146 146 144 136 135 132 127 126 121 116 113 109 102 94 91 90 97 98 93 87 83 68 85 78 71 82 87 92 98 114 119 119 114 108 100 108 102 94 90 83 74 75
205 248 269 237 250 222 140 221 203 54 73 134 149 160 159 151 157 97 125 130 136 154 158 137 175 291 175 165 144 148 150 151 153 155 153 154 155 155 155 157 158 159 161 163 162 162 163 162 161 157 157 156 158 155 153 146 146 147 143 138 135 131 128 124 118 116 114 108 108 102 109 96 93 94 91 88 83 75 78 81 80 78 76 74 75 86 82 93 96 87 75 88 103 97 102 96 63
182 204 232 247 249 240 239 224 145 32 212 158 171 176 157 148 164 141 138 138 134 146 130 106 75 89 120 122 138 143 150 154 157 158 160 159 161 159 163 163 162 165 165 165 166 166 166 165 164 162 158 158 156 156 158 155 150 155 145 144 140 139 135 132 129 115 113 114 115 115 98 98 102 97 94 94 85 84 83 66 76 74 77 77 75 75 78 83 95 97 112 123 132 135 126 120 147
195 202 220 249 200 204 257 344 326 320 5 173 179 179 179 161 160 160 162 148 146 142 131 130 101 106 115 135 141 148 154 158 160 163 163 165 166 165 167 165 168 166 167 167 166 170 170 168 168 166 163 158 156 161 162 163 157 153 148 145 137 141 137 134 125 118 113 114 113 98 96 90 87 93 99 101 92 84 75 71 71 60 67 77 78 76 77 92 101 119 123 129 136 134 138 141 151
210 224 223 238 233 252 266 280 287 290 311 166 181 180 187 151 172 162 185 159 167 169 149 152 140 139 142 146 148 151 158 161 165 167 167 169 169 167 168 169 169 171 167 170 165 171 173 172 171 169 165 159 160 165 169 168 162 156 153 150 144 144 142 138 127 125 123 115 111 104 103 96 91 96 85 101 114 107 98 86 70 58 65 85 79 88 94 76 84 99 119 124 133 120 115 133 127
178 218 226 246 248 253 79 331 286 280 256 178 176 168 178 168 173 176 163 159 197 196 178 169 163 152 152 154 154 157 161 164 168 170 169 168 170 170 171 172 172 170 169 167 167 173 177 173 173 173 169 160 165 166 172 172 166 162 158 157 151 149 148 147 140 140 134 131 126 124 112 105 108 99 94 93 83 94 94 90 101 84 69 75 62 80 62 67 68 71 88 92 72 92 97 101 98
194 225 240 240 89 236 354 316 59 36 28 167 158 169 201 162 178 195 175 192 199 204 191 177 154 151 155 160 160 162 165 167 171 173 172 171 170 170 172 172 170 170 167 171 171 173 177 174 176 175 173 169 167 170 173 167 171 167 164 161 160 156 157 156 156 152 150 154 148 123 116 121 118 105 99 90 94 90 105 126 120 133 138 87 74 65 77 51 54 55 58 55 52 80 85 82 93
231 231 248 249 257 284 313 315 323 336 355 274 189 199 132 175 193 200 197 211 95 153 167 159 154 158 157 157 160 166 169 171 173 176 173 173 172 172 173 173 171 171 173 173 171 173 177 176 180 177 177 170 174 169 172 173 182 171 168 170 167 166 167 168 172 165 155 160 155 138 164 141 134 131 123 120 110 96 105 125 133 142 112 71 45 57 58 58 51 65 56 56 48 42 71 83 90
237 253 262 250 247 256 275 283 299 304 303 294 264 181 194 187 210 195 215 220 47 134 148 143 147 151 152 159 168 170 172 174 175 175 176 176 174 170 170 172 175 171 173 173 174 175 178 180 179 179 178 175 176 176 178 179 179 180 173 170 181 164 176 183 179 175 161 174 177 167 185 163 163 149 144 154 126 161 87 81 82 57 62 54 49 8 48 53 58 59 66 66 53 30 41 54 75
227 247 256 264 273 274 279 282 286 294 290 282 261 206 215 194 207 170 214 207 136 136 139 141 144 152 161 162 167 169 172 173 172 172 173 176 176 170 169 173 174 173 176 174 174 177 180 181 181 183 182 180 180 180 182 181 179 186 179 183 182 175 190 189 185 177 188 185 179 189 200 182 175 170 157 137 150 74 43 33 38 42 33 48 43 33 26 31 57 1 60 87 87 58 48 71 70
224 235 250 283 272 290 289 288 282 280 281 280 274 245 237 214 182 217 199 187 143 139 143 146 149 155 165 169 169 170 173 175 173 174 176 173 174 173 176 176 176 177 176 173 176 179 180 181 184 187 187 182 183 184 185 181 182 188 187 188 182 186 193 188 185 195 198 192 184 195 200 207 187 170 161 139 215 97 20 36 17 34 20 23 347 30 35 7 19 50 88 118 87 85 14 57 13
189 237 252 269 276 283 278 272 277 276 271 270 264 262 246 200 186 238 184 155 142 146 150 155 157 164 167 170 172 173 172 176 178 172 171 175 177 180 178 177 178 178 175 176 179 180 180 184 186 189 189 184 186 191 188 183 184 190 188 190 190 193 190 191 197 205 202 200 191 182 210 218 220 208 172 202 285 291 266 284 330 4 13 35 8 10 5 358 3 348 8 6 51 42 34 51 349
262 301 281 264 270 270 270 264 262 262 273 248 238 254 263 192 199 235 154 152 153 152 156 162 166 167 170 170 171 174 178 177 173 175 178 178 181 183 181 183 181 176 177 181 180 180 182 187 188 189 190 187 192 195 192 187 186 192 190 194 196 196 194 199 201 205 207 206 198 198 211 214 225 218 247 279 297 316 314 326 334 334 0 12 6 0 4 13 354 5 7 4 19 17 65 130 37
251 283 288 283 295 285 267 253 251 203 254 240 242 264 249 179 220 215 148 155 159 154 161 165 169 170 170 171 171 176 178 176 178 183 186 184 181 183 185 184 179 177 181 180 178 181 184 187 188 191 192 187 193 197 195 192 183 186 192 195 197 199 200 204 206 204 203 198 200 213 215 221 227 234 205 257 284 303 310 308 307 325 341 5 15 18 32 48 30 331 126 67 51 33 35 107 197
240 250 264 294 287 277 270 224 228 206 236 194 170 256 229 199 209 160 151 158 159 156 164 169 169 171 173 174 175 177 179 178 184 188 186 185 185 186 186 184 183 179 173 179 179 182 182 186 188 191 193 194 197 199 200 194 184 183 187 193 197 204 208 208 211 206 200 199 200 205 220 224 232 234 235 233 266 285 298 291 298 305 353 26 49 56 58 76 40 341 45 300 73 298 358 36 273
213 226 227 256 276 250 117 217 137 204 187 183 190 255 264 209 191 159 159 159 162 167 168 171 171 173 174 177 177 179 182 183 185 186 188 188 186 188 188 184 184 182 175 176 180 181 183 186 187 191 192 196 196 200 201 200 185 183 184 191 194 203 208 218 214 210 204 207 206 205 213 221 226 234 232 249 260 285 284 288 291 308 16 19 54 63 21 67 32 302 15 286 22 288 303 317 285
199 174 225 219 229 261 220 154 195 222 146 196 184 250 263 277 172 163 165 168 167 170 171 174 174 177 177 179 181 181 184 185 187 187 188 188 187 186 187 187 186 186 183 179 177 178 181 185 189 194 192 195 197 199 202 203 191 187 187 188 194 199 209 218 218 219 216 212 220 218 213 216 220 225 228 220 253 263 281 290 298 320 0 10 56 68 54 56 2 321 334 298 302 312 291 271 262
210 221 206 209 200 244 277 214 224 229 224 193 204 245 261 255 161 166 170 170 175 171 173 177 178 179 178 181 182 183 181 185 188 190 188 188 190 188 188 188 187 190 186 182 180 181 183 184 189 194 191 194 196 198 201 202 202 195 193 193 198 198 211 216 220 219 222 224 226 231 217 215 219 220 223 211 241 258 270 275 276 294 6 40 68 58 41 13 1 341 303 319 324 308 304 311 322
203 205 226 190 198 224 240 297 235 218 220 207 212 240 250 278 139 167 175 175 177 177 178 179 179 180 182 181 183 183 184 184 188 190 189 188 187 188 188 188 187 188 188 187 185 182 183 183 189 193 191 191 194 197 200 199 204 203 195 200 195 203 210 218 221 221 226 228 223 230 224 220 220 223 223 214 231 255 270 275 283 296 107 88 82 62 56 18 342 344 313 331 355 326 316 342 42
198 190 212 206 228 242 248 208 92 179 177 235 214 234 248 247 134 177 182 184 182 185 181 180 180 181 181 184 186 187 188 189 191 187 186 187 188 188 188 188 188 187 189 190 188 185 182 186 187 194 190 188 192 197 197 200 202 205 207 200 202 208 212 220 226 227 230 228 233 228 223 223 219 218 223 210 224 243 248 244 242 189 138 86 84 83 69 4 306 304 310 319 51 37 2 22 44
213 194 210 212 209 216 229 236 262 309 268 221 223 238 243 243 219 188 187 192 194 194 183 179 181 181 182 186 188 189 192 196 191 186 184 185 189 187 189 188 189 188 190 190 189 187 185 182 190 195 191 189 186 191 191 196 199 205 207 199 208 212 214 213 217 230 234 234 232 231 225 229 218 216 212 212 213 230 242 226 207 185 146 106 89 114 141 176 246 278 285 313 330 41 54 34 100
116 203 217 225 228 240 233 220 273 274 282 257 248 247 250 250 228 200 191 189 200 194 187 184 183 183 186 189 191 193 194 195 187 188 186 186 187 187 188 186 188 188 188 189 189 190 187 186 183 191 194 193 191 189 194 197 200 203 210 204 206 202 206 207 216 221 228 233 231 235 231 231 224 221 212 203 208 209 249 244 217 204 184 118 135 176 201 189 239 266 288 293 310 333 34 62 88
265 218 211 221 222 236 213 103 327 295 266 259 215 273 262 253 240 211 183 186 199 202 195 191 187 188 190 191 193 193 191 184 183 189 194 188 187 186 186 186 187 187 189 189 190 191 190 189 189 190 188 196 192 189 189 192 195 196 193 197 197 199 196 203 213 217 225 226 221 225 232 234 227 223 217 202 202 209 216 220 220 225 199 145 145 180 160 212 225 238 227 224 7 320 359 16 112
241 239 217 243 225 263 288 264 262 275 280 269 280 274 271 263 243 199 186 193 206 205 198 192 186 190 191 193 193 188 184 187 187 190 191 191 189 188 187 189 190 190 187 188 190 191 190 190 192 188 189 191 190 193 184 188 190 190 188 188 192 195 203 210 220 221 222 229 225 220 223 222 219 224 219 207 208 207 214 214 225 223 218 184 155 154 157 171 192 229 219 217 149 146 73 109 153
231 229 228 219 153 186 218 115 53 346 238 284 324 286 273 275 210 217 206 199 212 208 205 199 193 190 191 191 188 187 187 185 186 187 189 191 190 189 189 189 189 189 189 190 190 191 190 192 190 190 189 189 190 191 188 188 184 179 179 178 183 198 196 197 211 224 229 232 231 223 218 215 213 222 213 211 212 208 209 217 224 225 216 211 219 199 176 179 161 195 218 212 193 190 188 161 205
222 234 235 228 211 226 288 32 329 312 251 260 272 270 265 255 247 224 211 210 216 203 196 200 202 205 202 197 198 194 191 187 187 188 190 191 192 192 190 189 187 189 191 191 190 190 191 192 191 189 188 191 190 188 187 181 173 171 170 169 174 189 194 194 205 220 220 219 226 224 222 210 208 214 209 208 212 209 209 214 223 224 229 217 221 227 223 225 195 191 197 206 198 229 192 162 185
225 228 232 233 238 249 255 285 315 284 259 221 269 265 256 224 232 247 190 182 214 202 196 203 200 194 191 199 200 197 199 194 191 190 190 191 192 190 190 190 190 191 192 191 189 189 189 191 190 188 190 191 192 189 183 185 179 177 178 185 186 193 202 200 205 210 209 210 220 222 218 208 203 204 206 206 210 209 209 213 211 225 226 229 227 237 228 178 194 214 218 229 192 208 258 177 188
231 232 212 226 240 243 255 263 271 259 246 102 343 252 260 139 223 220 184 194 210 196 208 210 202 197 199 201 196 197 195 193 196 196 192 191 192 193 192 191 192 193 193 189 188 189 189 188 188 188 189 189 190 188 184 190 182 186 187 190 191 192 198 206 207 210 213 207 214 216 209 201 200 208 207 201 200 202 207 207 210 216 225 223 223 226 221 222 205 210 215 227 198 150 188 212 216
236 217 177 202 225 234 241 253 252 267 307 293 274 268 277 273 234 179 186 211 218 204 211 210 201 198 204 203 202 199 196 196 192 193 193 193 192 193 194 192 191 194 189 187 187 188 188 187 184 187 189 190 188 183 183 184 185 189 191 195 197 198 201 200 195 200 201 200 207 220 219 212 204 206 208 193 195 194 199 204 207 215 217 226 217 228 234 229 191 176 199 220 178 174 191 215 223
233 167 160 190 211 224 233 240 249 256 289 267 238 204 256 260 200 105 177 218 219 217 214 211 207 208 207 205 202 200 199 198 195 193 194 193 194 195 194 194 194 191 190 189 187 186 184 184 183 186 189 188 187 183 183 187 189 190 191 194 197 201 199 199 188 193 199 200 211 214 215 216 207 201 206 203 193 193 192 201 202 211 217 219 219 232 232 224 214 200 178 187 191 185 200 206 206
215 111 181 201 205 213 223 234 244 248 240 249 237 199 244 265 256 181 166 235 233 217 212 212 207 211 207 205 205 203 199 200 202 199 195 194 195 196 196 194 191 192 190 189 186 184 183 183 185 187 191 189 186 185 186 188 191 190 193 196 197 194 193 193 191 189 193 191 205 209 208 210 210 203 201 203 196 194 196 195 201 210 218 221 222 235 235 225 212 211 208 210 201 196 180 200 220
128 180 169 177 200 208 210 230 232 248 244 241 240 209 220 261 256 228 186 220 219 187 203 214 214 217 213 210 204 200 198 199 199 198 198 197 197 196 192 193 193 191 190 187 185 185 185 186 186 188 190 188 187 186 187 190 191 192 195 196 197 196 190 189 187 192 190 192 204 207 206 206 204 207 204 200 203 198 197 195 202 206 212 215 222 230 232 233 226 217 214 213 210 219 196 199 214
184 195 199 167 179 171 206 197 194 232 247 237 225 215 203 238 251 247 223 150 200 205 218 211 212 213 210 207 203 202 199 196 194 194 196 193 193 195 194 196 193 192 189 186 187 187 187 187 186 188 189 188 188 187 190 193 192 195 197 196 198 198 191 191 194 195 190 194 200 203 201 200 203 205 207 205 202 200 192 194 197 197 198 207 217 225 231 231 237 225 213 214 224 220 216 198 215
206 200 198 205 197 183 211 183 209 220 242 226 208 198 223 235 248 267 254 189 221 222 232 227 212 214 211 207 203 203 200 195 191 193 193 192 191 190 193 192 189 189 191 187 188 188 187 186 185 186 189 187 187 188 191 193 194 197 196 196 197 196 197 196 195 197 191 193 195 197 191 201 200 207 205 207 205 198 191 190 190 191 193 201 212 217 223 223 229 229 222 219 229 224 214 208 209
203 205 195 195 204 203 221 211 230 253 228 177 12 190 240 270 242 236 252 249 231 221 224 233 226 210 204 204 202 200 197 194 193 191 193 195 192 189 190 190 187 186 190 189 189 189 187 186 184 188 190 187 186 189 191 194 196 197 196 195 194 193 198 199 199 200 195 194 190 195 198 201 203 208 204 202 202 199 200 197 193 195 193 191 196 208 216 219 219 227 223 221 225 226 217 213 226
205 204 205 208 208 203 214 208 214 229 267 215 159 165 233 173 238 191 236 239 242 229 222 228 224 216 203 202 198 198 197 197 193 192 194 195 193 189 190 190 188 189 192 191 190 188 185 185 184 187 188 187 186 188 191 194 196 197 197 196 194 195 198 200 203 202 197 191 194 197 197 202 207 206 203 194 192 196 202 199 197 198 192 190 191 198 207 212 215 223 226 222 230 226 214 214 224
201 199 209 217 216 196 230 192 227 247 243 229 185 214 72 224 8 297 262 251 237 223 216 219 223 213 201 194 197 199 200 197 192 193 194 194 188 186 188 188 189 190 190 192 191 186 183 183 183 186 187 185 187 189 192 193 195 194 195 195 197 196 197 199 200 195 195 191 191 195 195 199 206 202 195 192 194 195 199 202 198 202 197 193 193 196 201 208 208 215 221 220 222 216 217 218 228
185 189 207 216 192 202 225 263 240 5 263 252 201 225 246 299 280 252 231 239 242 235 226 222 224 210 186 195 198 199 199 196 195 196 194 191 186 185 190 191 189 188 190 192 190 185 183 182 183 186 189 186 188 190 192 193 193 192 194 194 196 197 197 199 202 201 204 199 196 197 200 204 201 201 198 198 199 194 198 200 202 204 200 200 197 197 200 206 206 211 218 218 221 221 216 227 228
137 207 210 144 177 219 222 238 196 229 243 227 177 223 236 215 252 203 229 222 238 232 225 222 223 197 187 200 198 198 198 197 196 195 191 185 185 187 190 191 190 190 190 188 186 181 181 182 185 186 187 188 188 189 192 192 191 192 192 195 196 198 199 203 205 202 199 195 193 195 201 196 201 202 201 200 197 195 197 196 201 201 200 202 204 203 202 205 207 217 219 219 223 217 215 224 223
229 243 144 183 183 202 205 225 231 226 230 243 220 212 246 222 224 159 212 233 241 239 221 227 225 198 202 204 202 199 198 198 195 192 186 184 188 188 191 194 193 191 187 188 183 184 186 187 188 189 190 191 189 190 192 192 191 191 193 194 194 196 198 201 202 198 191 195 199 197 201 202 198 195 191 195 197 202 199 198 202 203 199 200 200 206 201 204 205 218 221 223 216 212 221 229 226
247 53 193 203 218 213 194 206 259 241 248 238 241 190 241 216 237 237 237 224 230 241 237 225 227 203 204 207 205 197 193 197 197 193 191 190 191 191 191 192 191 190 187 186 184 187 190 189 186 190 191 189 189 191 190 192 192 192 192 191 193 194 195 196 196 191 194 198 201 201 201 201 197 196 200 198 204 206 204 205 205 208 208 203 201 203 202 203 204 219 224 227 223 210 219 230 239
200 212 218 180 223 6 226 204 215 217 238 239 249 243 224 225 211 236 238 234 235 232 228 224 218 217 215 208 198 194 194 197 197 194 194 193 194 195 193 192 193 191 186 184 186 190 191 190 190 190 189 188 189 190 190 190 188 193 189 188 189 191 195 196 197 196 199 200 200 200 201 203 191 199 198 201 204 207 206 208 212 210 212 206 200 199 197 199 205 221 231 234 231 220 221 231 232
297 322 255 265 223 199 201 224 203 225 228 234 223 243 240 185 175 219 219 223 228 229 236 232 222 216 218 216 205 194 193 198 195 196 196 194 193 194 192 190 189 188 186 186 189 188 188 190 191 189 190 189 190 189 191 188 188 190 191 190 192 193 195 196 198 197 199 199 199 198 197 193 195 197 197 205 206 207 208 209 212 212 211 211 202 198 198 197 205 211 224 231 234 235 238 237 233